Tampa Macdill AFB, FL

5:23 PM EDT on October 21, 2019 (GMT -0400)
MacDill Air Force Base

Weather History for KMCF - August, 2019

Change the Weather History Date:

Monday, August 12, 2019

  Actual Average Record
Temperature  
Mean Temperature 84 °F -  
Max Temperature 89 °F 88 °F 95 °F (2011)
Min Temperature 78 °F 73 °F 71 °F (1998)
Cooling Degree Days 18    
Growing Degree Days 34 (Base 50)    
Moisture  
Dew Point 78 °F    
Average Humidity 86    
Maximum Humidity 94    
Minimum Humidity 69    
Precipitation  
Precipitation 0.98 in - - ()
Sea Level Pressure  
Sea Level Pressure 29.96 in    
Wind  
Wind Speed 3 mph (SSW)    
Max Wind Speed 12 mph    
Max Gust Speed -    
Visibility 10 miles    
Events Rain , Thunderstorm    
Averages and records for this station are not official NWS values.
T = Trace of Precipitation, MM = Missing Value Source: NWS Daily Summary

Daily Weather History Graph

Daily Weather History Graph

Search for Another Location

Airport or City:

Astronomy

Aug. 12, 2019 Rise Set
Actual Time 6:58 AM EDT 8:11 PM EDT
Civil Twilight 6:33 AM EDT 8:35 PM EDT
Nautical Twilight 6:04 AM EDT 9:05 PM EDT
Astronomical Twilight 5:34 AM EDT 9:35 PM EDT
Moon 6:28 PM EDT (8/12) 4:18 AM EDT (8/12)
Length of Visible Light 14h 01m
Length of Day
13h 12m
Waxing Gibbous, 93% of the Moon is Illuminated
Aug 12
Waxing Gibbous
Aug 15
Full
Aug 23
Last Quarter
Aug 30
New
Sep 5
First Quarter

Hourly Weather History & Observations

Time (EDT) Temp. Heat Index Dew Point Humidity Pressure Visibility Wind Dir Wind Speed Gust Speed Precip Events Conditions
12:34 AM 82.4 °F 92.4 °F 78.8 °F 89% 29.98 in 10.0 mi Calm Calm - N/A Thunderstorm Scattered Clouds
12:52 AM 82.4 °F 90.9 °F 77.0 °F 84% 29.98 in 10.0 mi Calm Calm - N/A Thunderstorm Light Drizzle
12:56 AM 81.9 °F 90.5 °F 77.9 °F 88% 29.98 in 10.0 mi SSE 2.3 mph - 0.00 in Thunderstorm Light Drizzle
1:07 AM 82.4 °F 92.4 °F 78.8 °F 89% 29.97 in 10.0 mi South 1.2 mph - N/A Thunderstorm Light Drizzle
1:56 AM 82.0 °F 91.0 °F 78.1 °F 88% 29.96 in 10.0 mi SSW 4.6 mph - 0.00 in   Partly Cloudy
2:06 AM 82.4 °F 92.4 °F 78.8 °F 89% 29.95 in 10.0 mi South 4.6 mph - N/A   Mostly Cloudy
2:11 AM 82.4 °F 90.9 °F 77.0 °F 84% 29.94 in 10.0 mi Calm Calm - N/A   Scattered Clouds
2:56 AM 83.3 °F 93.5 °F 77.9 °F 84% 29.92 in 10.0 mi SW 3.5 mph - N/A   Clear
3:56 AM 82.9 °F 91.8 °F 76.8 °F 82% 29.91 in 10.0 mi Calm Calm - N/A   Clear
4:56 AM 80.2 °F 86.5 °F 77.4 °F 91% 29.91 in 10.0 mi Calm Calm - 0.00 in   Clear
5:56 AM 81.9 °F 89.7 °F 76.8 °F 85% 29.92 in 10.0 mi Calm Calm - N/A   Clear
6:56 AM 80.6 °F 87.1 °F 77.0 °F 89% 29.93 in 10.0 mi Calm Calm - N/A   Clear
7:56 AM 81.0 °F 88.6 °F 78.1 °F 91% 29.96 in 10.0 mi Calm Calm - N/A   Partly Cloudy
8:56 AM 86.4 °F 99.9 °F 78.6 °F 78% 29.98 in 10.0 mi West 4.6 mph - N/A   Mostly Cloudy
9:56 AM 89.1 °F 102.6 °F 77.9 °F 69% 29.98 in 10.0 mi NW 3.5 mph - N/A   Clear
10:11 AM 87.8 °F 102.5 °F 78.8 °F 75% 29.99 in 10.0 mi Calm Calm - N/A Rain Light Rain
10:21 AM 84.2 °F 96.1 °F 78.8 °F 84% 29.99 in 10.0 mi WSW 4.6 mph - N/A Rain Heavy Rain
10:41 AM 82.4 °F 90.9 °F 77.0 °F 84% 29.98 in 10.0 mi South 5.8 mph - N/A Rain Light Rain
10:43 AM 82.4 °F 90.9 °F 77.0 °F 84% 29.99 in 10.0 mi South 6.9 mph - N/A   Overcast
10:47 AM 80.6 °F 87.1 °F 77.0 °F 89% 29.99 in 10.0 mi SSE 6.9 mph - N/A Rain Light Rain
10:52 AM 82.4 °F 90.9 °F 77.0 °F 84% 29.99 in 10.0 mi SE 5.8 mph - N/A Rain Light Rain
10:56 AM 81.9 °F 90.2 °F 77.5 °F 87% 30.00 in 10.0 mi SE 5.8 mph - 0.53 in Rain Light Rain
11:06 AM 78.8 °F - 75.2 °F 89% 29.99 in 8.0 mi South 11.5 mph - N/A Rain Heavy Rain
11:16 AM 80.6 °F 86.2 °F 75.2 °F 84% 29.99 in 10.0 mi South 8.1 mph - N/A Rain Rain
11:31 AM 80.6 °F 87.1 °F 77.0 °F 89% 29.99 in 10.0 mi South 5.8 mph - N/A   Scattered Clouds
11:41 AM 80.6 °F 87.1 °F 77.0 °F 89% 29.99 in 10.0 mi SSE 6.9 mph - N/A   Mostly Cloudy
11:51 AM 82.4 °F 90.9 °F 77.0 °F 84% 30.00 in 8.0 mi SW 6.9 mph - N/A   Mostly Cloudy
11:52 AM 82.4 °F 92.4 °F 78.8 °F 89% 30.00 in 7.0 mi WSW 6.9 mph - N/A Rain Light Rain
11:56 AM 82.6 °F 92.3 °F 78.3 °F 87% 29.99 in 4.0 mi WSW 6.9 mph - 0.37 in Rain Light Rain
12:01 PM 82.4 °F 90.9 °F 77.0 °F 84% 29.99 in 0.6 mi SW 11.5 mph - N/A Rain Light Rain
12:11 PM 82.4 °F 90.9 °F 77.0 °F 84% 29.98 in 2.8 mi South 3.5 mph - N/A Rain Light Rain
12:16 PM 82.4 °F 90.9 °F 77.0 °F 84% 29.98 in 8.0 mi Calm Calm - N/A Rain Heavy Rain
12:31 PM 82.4 °F 92.4 °F 78.8 °F 89% 29.98 in 10.0 mi Calm Calm - N/A Rain Light Rain
12:41 PM 84.2 °F 96.1 °F 78.8 °F 84% 29.97 in 10.0 mi SSE 5.8 mph - N/A   Light Drizzle
12:42 PM 84.2 °F 98.3 °F 80.6 °F 89% 29.98 in 10.0 mi SSE 5.8 mph - N/A   Mostly Cloudy
12:56 PM 85.6 °F 99.7 °F 79.7 °F 82% 29.97 in 10.0 mi South 3.5 mph - 0.05 in   Mostly Cloudy
1:40 PM 86.0 °F 99.3 °F 78.8 °F 79% 29.97 in 10.0 mi ESE 5.8 mph - N/A Rain Light Rain
1:50 PM 86.0 °F 99.3 °F 78.8 °F 79% 29.97 in 10.0 mi SE 6.9 mph - N/A   Partly Cloudy
1:56 PM 86.2 °F 100.4 °F 79.5 °F 80% 29.97 in 10.0 mi Calm Calm - 0.00 in   Partly Cloudy
2:56 PM 89.1 °F 102.6 °F 77.9 °F 69% 29.95 in 10.0 mi WSW 3.5 mph - N/A   Mostly Cloudy
3:56 PM 88.3 °F 101.7 °F 77.7 °F 71% 29.92 in 10.0 mi WSW 8.1 mph - N/A   Overcast
5:23 PM 87.8 °F 99.7 °F 77.0 °F 70% 29.91 in 10.0 mi WNW 8.1 mph - N/A Rain Light Rain
5:53 PM 86.0 °F 96.9 °F 77.0 °F 74% 29.93 in 10.0 mi WNW 4.6 mph - N/A Thunderstorm Mostly Cloudy
6:44 PM 80.6 °F 87.1 °F 77.0 °F 89% 29.93 in 10.0 mi WSW 3.5 mph - N/A Rain , Thunderstorm Light Rain
7:00 PM 80.6 °F 87.1 °F 77.0 °F 89% 29.94 in 10.0 mi SW 5.8 mph - N/A Thunderstorm Unknown
7:15 PM 80.6 °F 87.1 °F 77.0 °F 89% 29.93 in 10.0 mi SW 3.5 mph - N/A Rain , Thunderstorm Light Rain
7:49 PM 80.6 °F 87.1 °F 77.0 °F 89% 29.94 in 10.0 mi SSW 4.6 mph - N/A Rain Light Rain
7:56 PM 81.5 °F 89.5 °F 77.5 °F 88% 29.94 in 10.0 mi SSW 4.6 mph - 0.01 in Rain , Thunderstorm Light Rain
8:14 PM 82.4 °F 92.4 °F 78.8 °F 89% 29.93 in 10.0 mi SW 3.5 mph - N/A   Scattered Clouds
8:40 PM 82.4 °F 92.4 °F 78.8 °F 89% 29.95 in 10.0 mi SE 3.5 mph - N/A Thunderstorm Unknown
8:50 PM 80.6 °F 88.1 °F 78.8 °F 94% 29.95 in 10.0 mi SE 8.1 mph - N/A Thunderstorm Thunderstorm
8:55 PM 80.6 °F 88.1 °F 78.8 °F 94% 29.95 in 10.0 mi SSE 5.8 mph - N/A   Mostly Cloudy
9:05 PM 80.6 °F 87.1 °F 77.0 °F 89% 29.95 in 10.0 mi South 3.5 mph - N/A Rain Light Rain
9:06 PM 80.6 °F 87.1 °F 77.0 °F 89% 29.95 in 10.0 mi SSW 4.6 mph - N/A Rain Light Rain
9:21 PM 80.6 °F 87.1 °F 77.0 °F 89% 29.95 in 10.0 mi South 4.6 mph - N/A   Light Drizzle
9:47 PM 80.6 °F 87.1 °F 77.0 °F 89% 29.94 in 10.0 mi SSE 4.6 mph - N/A Thunderstorm Scattered Clouds
9:56 PM 80.6 °F 87.5 °F 77.7 °F 91% 29.94 in 10.0 mi SSE 3.5 mph - 0.02 in   Partly Cloudy
10:19 PM 80.6 °F 87.1 °F 77.0 °F 89% 29.96 in 10.0 mi Calm Calm - N/A   Partly Cloudy
10:46 PM 80.6 °F 87.1 °F 77.0 °F 89% 29.96 in 10.0 mi Calm Calm - N/A   Light Drizzle
10:48 PM 80.6 °F 87.1 °F 77.0 °F 89% 29.95 in 10.0 mi Calm Calm - N/A   Partly Cloudy
10:53 PM 80.6 °F 87.1 °F 77.0 °F 89% 29.95 in 10.0 mi Calm Calm - N/A   Light Drizzle
10:55 PM 80.6 °F 87.1 °F 77.0 °F 89% 29.95 in 10.0 mi Calm Calm - N/A   Partly Cloudy
10:56 PM 80.2 °F 86.5 °F 77.5 °F 91% 29.95 in 10.0 mi Calm Calm - 0.00 in   Partly Cloudy
11:02 PM 80.6 °F 87.1 °F 77.0 °F 89% 29.95 in 10.0 mi Calm Calm - N/A   Light Drizzle
11:20 PM 78.8 °F - 77.0 °F 94% 29.95 in 10.0 mi Calm Calm - N/A Thunderstorm Clear
11:28 PM 78.8 °F - 77.0 °F 94% 29.94 in 10.0 mi Calm Calm - N/A Rain Light Rain
11:42 PM 78.8 °F - 77.0 °F 94% 29.93 in 10.0 mi SW 3.5 mph - N/A   Scattered Clouds
11:56 PM 79.9 °F - 77.9 °F 94% 29.92 in 10.0 mi Calm Calm - 0.00 in   Partly Cloudy